OpenBCM V2.0.2 (Linux)

Packet Radio Mailbox

IZ3LSV

[San Dona' di P. JN]

 Login: GUEST





  
LU9DCE > KEPS     26.02.18 18:13l 260 Lines 12905 Bytes #999 (0) @ WW
BID : 32880_LU9DCE
Read: GUEST
Subj: SAT TLE OF 26
Path: IZ3LSV<IR2UBX<EA2RCF<LU9DCE
Sent: 180226/1601Z @:LU9DCE.TOR.BA.ARG.SOAM #:32880 [TORTUGUITAS] FBB7.07
From: LU9DCE@LU9DCE.TOR.BA.ARG.SOAM
To  : KEPS@WW


            __    _  _  ___  ____   ___  ____    ____  ____  ____
           (  )  / )( \/ _ \(    \ / __)(  __)  (  _ \(  _ \/ ___)
           / (_/\) \/ (\__  )) D (( (__  ) _)    ) _ ( ) _ (\___ \
           \____/\____/(___/(____/ \___)(____)  (____/(____/(____/
               ESTACION DE PACKET RADIO - BUENOS AIRES (GF05OM)
                   BOLETINES INFORMATIVOS PROGRAMADOS (BIP)
                    LU9DCE@GMX.COM - RF 147070 @ 1200 BAUD
                           telnet lu9dce.dynu.com
             BBS port 6300 / NODE port 3694 / DXCLUSTER port 9000

+------------------------------------------------------------------------------+
OSCAR 7
1  7530U 74089B   18056.84814616 -.00000025 +00000-0 +12479-3 0  9995
2  7530 101.6724 025.9039 0011963 189.4104 224.0986 12.53631387980415
OSCAR 11 (UoSAT 2)
1 14781U 84021B   18056.87319865 +.00000067 +00000-0 +14469-4 0  9994
2 14781 097.6645 097.7484 0010022 089.0243 271.2119 14.82982717806949
OSCAR 19 (LUSAT)
1 20442U 90005G   18056.90541034 -.00000008 +00000-0 +13139-4 0  9992
2 20442 098.6009 356.1411 0012756 116.1854 244.0643 14.32887492467899
KITSAT B
1 22825U 93061C   18056.90103676  .00000013  00000-0  22978-4 0  9996
2 22825  98.8496  31.0779 0007668 317.0650  42.9933 14.30022725273661
POSAT 1
1 22826U 93061D   18056.87364544 +.00000015 +00000-0 +23371-4 0  9996
2 22826 098.8437 031.1016 0008059 305.6685 054.3746 14.30353644273596
RADIO ROSTO
1 23439U 94085A   18056.67716380 -.00000045 +00000-0 -63801-4 0  9998
2 23439 064.8161 169.1780 0161017 201.9590 261.8262 11.27566527954156
JAS 2
1 24278U 96046B   18056.64760192  .00000000  00000-0  34695-4 0  9994
2 24278  98.5280 270.7033 0351011  40.4359 322.2312 13.53081883 63155
TECHSAT 1B
1 25397U 98043D   18057.05609637 -.00000017  00000-0  11657-4 0  9990
2 25397  98.6395 359.3978 0001487  31.0484 329.0782 14.23640344 19914
ISS (ZARYA)
1 25544U 98067A   18056.91952221 +.00002260 +00000-0 +41334-4 0  9990
2 25544 051.6418 213.4073 0002901 130.1128 005.8529 15.54151734101215
PCSAT
1 26931U 01043C   18056.90816810 -.00000036 +00000-0 +18054-4 0  9994
2 26931 067.0517 156.5435 0006020 282.3738 077.6690 14.30494990856567
SAUDISAT 1C
1 27607U 02058C   18056.51083706  .00000011  00000-0  22240-4 0  9993
2 27607  64.5546  71.3805 0051981 354.9531   5.1040 14.75422429816489
CUTE-1
1 27844U 03031E   18056.93347384 +.00000065 +00000-0 +49307-4 0  9991
2 27844 098.6892 067.2190 0009304 339.7313 020.3494 14.22096370760345
CUBESAT XI 4
1 27848U 03031J   18056.93229848 +.00000048 +00000-0 +41542-4 0  9993
2 27848 098.6980 067.5774 0009393 350.3005 009.7990 14.21702640760225
MOZHAYETS 4
1 27939U 03042A   18057.52179583  .00000078  00000-0  22480-4 0  9995
2 27939  97.9713 199.6334 0013983 135.8266 298.4567 14.66660176770590
CUBESAT XI 5
1 28895U 05043F   18056.90354895 +.00000134 +00000-0 +34459-4 0  9994
2 28895 097.8915 212.9718 0017983 063.7845 296.5204 14.63512288657369
CUTE-1.7+APD II
1 32785U 08021C   18056.83043802 +.00000225 +00000-0 +30089-4 0  9997
2 32785 097.5527 074.2968 0014294 052.2802 307.9708 14.88066843532548
DELFI C3
1 32789U 08021G   18056.74857431 +.00001057 +00000-0 +77064-4 0  9990
2 32789 097.5275 114.3194 0011257 323.7874 036.2590 15.05775260534914
SEEDS
1 32791U 08021J   18057.50264381  .00000237  00000-0  29636-4 0  9995
2 32791  97.5443  80.0331 0014152  33.1588 327.0515 14.90475187533024
YUBELEINY
1 32953U 08025A   18057.53425955  .00000038  00000-0  19876-3 0  9991
2 32953  82.4990  81.4974 0020388  91.6274 268.7141 12.43081912443022
PRISM (HITOMI)
1 33493U 09002B   18057.41681071  .00000869  00000-0  82832-4 0  9992
2 33493  98.1412 315.1959 0014735 328.4346  31.5945 14.96094489493784
KKS-1 (KISEKI)
1 33499U 09002H   18055.59325224 +.00000096 +00000-0 +22309-4 0  9995
2 33499 098.3496 233.7291 0008050 294.1375 065.8991 14.75296952488154
SWISSCUBE
1 35932U 09051B   18056.98127584  .00000134  00000-0  41425-4 0  9999
2 35932  98.5271 205.5771 0007709 183.1379 176.9771 14.56124215447259
BEESAT
1 35933U 09051C   18056.87914209  .00000125  00000-0  39122-4 0  9997
2 35933  98.5311 206.9480 0005636 194.0414 166.0627 14.56232189447345
ITUPSAT 1
1 35935U 09051E   18056.93991998 +.00000083 +00000-0 +30220-4 0  9999
2 35935 098.5424 207.2646 0008014 191.8331 168.2678 14.55413256447116
XIWANG-1 (HOPE-1)
1 36122U 09072B   18056.96919633 -.00000041 +00000-0 +33117-5 0  9994
2 36122 100.0831 076.7753 0007611 014.7292 345.4043 13.16343551393914
TISAT 1
1 36799U 10035E   18056.89663271 +.00000412 +00000-0 +48018-4 0  9997
2 36799 098.0883 190.2902 0011835 208.2283 151.8294 14.90703210413373
JUGNU
1 37839U 11058B   18056.18518396  .00000320  00000-0  28647-4 0  9992
2 37839  19.9627 356.4069 0019085  92.4946  41.9809 14.12610188329519
SRMSAT
1 37841U 11058D   18056.32810878  .00000312  00000-0  26163-4 0  9993
2 37841  19.9733  42.4335 0011739 342.8401 159.0278 14.10599125329060
M-CUBED/EXP-1 PRIME
1 37855U 11061F   18056.93067486 +.00001775 +00000-0 +98441-4 0  9990
2 37855 101.7260 062.5245 0177722 051.4569 310.2421 15.04089169344453
HORYU 2
1 38340U 12025D   18057.53956963  .00000187  00000-0  35533-4 0  9994
2 38340  98.3738  75.4202 0011232 197.1265 162.9565 14.75503714310799
STRAND 1
1 39090U 13009E   18057.10692951  .00000015  00000-0  20690-4 0  9995
2 39090  98.5320 264.8635 0008091 267.2012  92.8247 14.35012168261891
SOMP
1 39134U 13015E   18056.80437937  .00001192  00000-0  66263-4 0  9991
2 39134  64.8630 127.1262 0023296 225.8489 134.0723 15.18837722267986
BEESAT 3
1 39135U 13015F   18056.57979476  .00000857  00000-0  53652-4 0  9990
2 39135  64.8696 139.7802 0029234 247.3974 112.4058 15.16416551267728
BEESAT 2
1 39136U 13015G   18056.84058529  .00001076  00000-0  65634-4 0  9995
2 39136  64.8701 141.4283 0029692 247.6556 112.1421 15.15897153267716
CUBEBUG 1
1 39153U 13018D   18057.18812331  .00000182  00000-0  30879-4 0  9994
2 39153  97.9782 153.1037 0015813 308.5552  51.4242 14.80344693261167
ZACUBE
1 39417U 13066B   18057.16621458  .00000205  00000-0  32301-4 0  9994
2 39417  97.6002  91.6617 0059842 157.5251 202.8604 14.80880224230367
TRITON 1
1 39427U 13066M   18056.96588207 +.00000142 +00000-0 +31051-4 0  9997
2 39427 097.6383 060.2890 0112726 255.5496 103.3180 14.67614966228078
GOMX 1
1 39430U 13066Q   18057.20610652  .00000231  00000-0  51328-4 0  9997
2 39430  97.6868  42.1459 0150794 321.3695  37.6793 14.59029568226975
HUMSAT D
1 39433U 13066T   18056.83120697  .00000482  00000-0  52824-4 0  9993
2 39433  97.6193 117.0283 0032567  93.6246 266.8699 14.91756604231829
50 SAT
1 39436U 13066W   18056.99485552  .00076436  00000-0  91278-3 0  9994
2 39436  97.7107 184.2757 0006322 245.4737 114.5860 15.60762011235887
CUBEBUG 2
1 39440U 13066AA  18057.54526615  .00000179  00000-0  32034-4 0  9994
2 39440  97.6088  79.3165 0080296 193.8261 166.0751 14.75616656229608
FUNCUBE 1
1 39444U 13066AE  18056.67969541 +.00000254 +00000-0 +37810-4 0  9991
2 39444 097.6015 092.5837 0059064 154.9632 205.4467 14.81645544229140
UWE-3
1 39446U 13066AG  18057.55445833  .00000199  00000-0  33142-4 0  9996
2 39446  97.6032  85.3154 0070490 175.3683 184.8197 14.78149701228770
SPROUT
1 39770U 14029E   18057.47989219  .00000810  00000-0  97274-4 0  9994
2 39770  97.8724 159.5016 0008620 202.9180 157.1652 14.86683158203912
UNISAT 6
1 40012U 14033C   18057.54836199  .00000154  00000-0  30683-4 0  9998
2 40012  97.8249 297.8136 0058051 194.3797 165.5763 14.73768294198409
DUCHIFAT 1
1 40021U 14033M   18056.73453298 +.00000362 +00000-0 +43233-4 0  9999
2 40021 097.9175 335.2538 0012782 179.7841 180.3384 14.90206121200356
QB50P1
1 40025U 14033R   18057.51198731  .00000275  00000-0  35471-4 0  9996
2 40025  97.9085 333.1240 0012279 182.8731 177.2417 14.88642475200323
CHUBUSAT 1
1 40300U 14070C   18057.53718416  .00000662  00000-0  32504-4 0  9997
2 40300  97.3724 137.5661 0018647 293.3304 162.9058 15.21399459183450
NUDT-PHONESAT
1 40900U 15049B   18057.06350100  .00002109  00000-0  98499-4 0  9993
2 40900  97.4433  66.6255 0015135  62.1387 298.1379 15.20825856135029
ZDPS 2A
1 40901U 15049C   18057.52525240  .00000875  00000-0  47747-4 0  9992
2 40901  97.4599  65.6113 0015334  65.5486 294.7345 15.16872851134883
ZDPS 2B
1 40902U 15049D   18057.22033489  .00000813  00000-0  44851-4 0  9994
2 40902  97.4489  63.5196 0015375  63.8621 296.4192 15.16678455134824
XW-2A
1 40903U 15049E   18057.54045940  .00001864  00000-0  48635-4 0  9996
2 40903  97.3978  91.2432 0016046  71.9165 288.3827 15.40042420136772
KAITUO 1A
1 40904U 15049F   18057.52217468  .00000283  00000-0  18669-4 0  9999
2 40904  97.4589  63.1862 0016479  63.6586  93.2481 15.14892656134741
OBJECT G
1 40905U 15049G   18057.17520086  .00000409  00000-0  26151-4 0  9999
2 40905  97.4575  61.1074 0017265  58.2814 302.0097 15.13866792134620
XW-2C
1 40906U 15049H   18057.49740002  .00000636  00000-0  37466-4 0  9990
2 40906  97.4596  63.0332 0016507  57.2282 303.0538 15.15029999134733
XW-2D
1 40907U 15049J   18057.52649904  .00000706  00000-0  41057-4 0  9993
2 40907  97.4568  62.7731 0015834  55.3764 304.8959 15.15169040134747
LILACSAT 2
1 40908U 15049K   18056.93916120 +.00000374 +00000-0 +24523-4 0  9995
2 40908 097.4676 061.6960 0017465 057.4493 302.8423 15.13414678134544
XW-2F
1 40910U 15049M   18057.55934449  .00001019  00000-0  55928-4 0  9991
2 40910  97.4576  63.9215 0016508  51.7330 308.5385 15.16282620134697
XW-2B
1 40911U 15049N   18057.54006541  .00000671  00000-0  39232-4 0  9997
2 40911  97.4606  63.2809 0015750  55.8383 304.4340 15.15117390134646
